Flag Weather past 2 weeks in Aix-en-Provence, France

Now
64 °F

Passing clouds.


Feels Like: 64 °F
Forecast: 54 / 64 °F
Wind: 8 mph from East

Location: Marseille / Marignane

Current Time: Nov 23, 2014 at 8:03:15 PM

Latest Report: Nov 23, 2014 at 7:30 PM


Visibility: N/A

Pressure: 30.12 "Hg

Humidity: 73%

Dew point: 55 °F

Location of Aix-en-ProvenceLocation

Historic Weather in Aix-en-Provence — Graph

°F

Aix-en-Provence temperature yesterday

Maximum temperature yesterday: 68 °F (at 1:00 PM)
Minimum temperature yesterday: 57 °F (at 4:30 AM)
Average temperature yesterday: 61 °F

Past Weeks' High & Low Weather Summary

 TemperatureHumidityPressure
High72 °F (Nov 23, 2:00 PM)94% (Nov 9, 1:00 PM)30.21 "Hg (Nov 9, 1:00 PM)
Low41 °F (Nov 19, 5:00 AM)48% (Nov 16, 1:30 PM)29.56 "Hg (Nov 12, 4:30 AM)
Average57 °F77%29.87 "Hg
* Reported Nov 8 7:00 PM — Nov 23 7:00 PM, Aix-en-Provence, Weather by CustomWeather, © 2014

Note: Actual official high and low records may vary slightly from our data, if they occured in-between our weather recording intervals... More about our weather records

Advertising

Aix-en-Provence weather history for previous 24 hours

 ConditionsComfort  
Time TempWeatherWind HumidityBarometerVisibility
7:00 PM
Nov 23
64 °FPassing clouds.6 mph73%30.12 "HgN/A
6:30 PM64 °FPassing clouds.8 mph73%30.12 "HgN/A
6:00 PM66 °FClear.9 mph68%30.12 "Hg10 mi
5:30 PM66 °FClear.12 mph68%30.12 "Hg10 mi
5:00 PM68 °FSunny.9 mph69%30.12 "Hg10 mi
4:30 PM68 °FPassing clouds.10 mph69%30.12 "HgN/A
4:00 PM70 °FSunny.10 mph64%30.12 "Hg10 mi
3:30 PM70 °FPassing clouds.7 mph64%30.12 "HgN/A
3:00 PM70 °FSunny.No wind64%30.12 "Hg10 mi
2:30 PM72 °FSunny.2 mph65%30.15 "Hg10 mi
2:00 PM72 °FSunny.1 mph65%30.15 "Hg10 mi
1:30 PM66 °FSunny.7 mph73%30.15 "Hg10 mi
1:00 PM70 °FPassing clouds.3 mph64%30.15 "HgN/A
12:30 PM68 °FSunny.5 mph69%30.15 "Hg10 mi
12:00 PM66 °FSunny.8 mph73%30.15 "Hg10 mi
11:30 AM66 °FSunny.6 mph73%30.18 "Hg10 mi
11:00 AM64 °FSunny.2 mph73%30.18 "Hg10 mi
10:30 AM66 °FSunny.3 mph68%30.15 "Hg10 mi
10:00 AM66 °FSunny.7 mph68%30.15 "Hg10 mi
9:30 AM64 °FSunny.9 mph73%30.15 "Hg10 mi
9:00 AM63 °FPassing clouds.6 mph73%30.15 "HgN/A
8:30 AM63 °FSunny.8 mph73%30.15 "Hg10 mi
8:00 AM61 °FSunny.8 mph77%30.15 "Hg10 mi
7:30 AM61 °FPassing clouds.6 mph77%30.15 "HgN/A
7:00 AM59 °FClear.3 mph77%30.15 "Hg10 mi
6:30 AM59 °FPassing clouds.5 mph77%30.12 "HgN/A
6:00 AM61 °FPassing clouds.6 mph72%30.12 "HgN/A
5:30 AM63 °FPassing clouds.7 mph73%30.12 "HgN/A
5:00 AM63 °FClear.7 mph68%30.12 "Hg10 mi
4:30 AM63 °FClear.7 mph73%30.12 "Hg10 mi
3:30 AM63 °FClear.7 mph68%30.12 "Hg10 mi
3:00 AM63 °FClear.8 mph68%30.12 "HgN/A
2:30 AM63 °FClear.8 mph68%30.15 "HgN/A
2:00 AM63 °FClear.5 mph68%30.15 "HgN/A
1:30 AM61 °FClear.8 mph72%30.15 "HgN/A
1:00 AM61 °FClear.13 mph72%30.12 "HgN/A
12:30 AM61 °FPartly cloudy.9 mph72%30.15 "HgN/A
12:00 AM61 °FPartly cloudy.10 mph72%30.15 "HgN/A
11:30 PM
Nov 22
61 °FPartly cloudy.13 mph72%30.15 "HgN/A
11:00 PM61 °FPartly cloudy.15 mph72%30.15 "HgN/A
10:30 PM61 °FPassing clouds.14 mph72%30.15 "HgN/A
10:00 PM59 °FPartly cloudy.14 mph77%30.15 "HgN/A
9:30 PM57 °FPartly cloudy.7 mph82%30.15 "HgN/A
9:00 PM59 °FPassing clouds.8 mph77%30.15 "HgN/A
8:30 PM59 °FClear.7 mph77%30.12 "Hg10 mi
8:00 PM59 °FClear.10 mph77%30.12 "Hg10 mi
Weather by CustomWeather, © 2014

See weather overviewHow to use our weather pages